* Astronomy

Members Login
Username 
 
Password 
    Remember Me  
Post Info TOPIC: Asteroid 2012 UW27


L

Posts: 131433
Date:
Asteroid 2012 UW27
Permalink  
 


Orbital elements:
2012 UW27                                                Earth MOID = 0.3260 AU
Epoch 2012 Sept. 30.0 TT = JDT 2456200.5                MPC
M 346.86404              (2000.0)            P               Q
n   0.21327920     Peri.  206.57264     +0.51230721     -0.82139597
a   2.7744084      Node   214.34780     +0.84560576     +0.53344161
e   0.5363726      Incl.   26.38063     +0.14997407     -0.20186308
P   4.62           H   21.1           G   0.15           U   8

MPEC 2012 - U54



__________________
Page 1 of 1  sorted by
 
Quick Reply

Please log in to post quick replies.



Create your own FREE Forum
Report Abuse
Powered by ActiveBoard